{"data":{"norad_id":41552,"intl_designator":"2016-031A","name":"THAICOM 8","alt_names":[],"object_type":"PAYLOAD","status":"ACTIVE","operator":null,"country":"THAI","launch_date":"2016-05-27","launch_site_code":"AFETR","launch_vehicle":null,"mission":null,"orbit_class":"UNKNOWN","rcs_meters":8.0064,"size_class":null,"mass_kg":null,"dimensions":null,"purposes":["comms"],"wikipedia_slug":null,"has_3d_model":false,"image_url":null,"decayed_at":null,"tle_current":{"epoch":"2026-09-20T00:11:17.298240Z","epoch_age_seconds":68210,"freshness":"FRESH","line1":"1 41552U 16031A   26263.00783910 -.00000125  00000+0  00000+0 0  9992","line2":"2 41552   0.0787  33.9248 0000998  77.7759 328.5331  1.00270803 37677","mean_motion":1.00270803,"eccentricity":9.98e-5,"inclination_deg":0.0787,"raan_deg":33.9248,"arg_perigee_deg":77.7759,"mean_anomaly_deg":328.5331,"bstar":0,"rev_number":3767,"period_min":1436.1109684142,"perigee_km":35782.662185961,"apogee_km":35791.078321409,"semimajor_km":42165.007253685,"source":"CELESTRAK","updated_at":"2026-09-20T09:00:35.224701Z"}}}